FW6720 Weather Reports


time (UTC)temp
C
wind
direction
speed
KPH
gust
KPH
rain 1hr
cm
rain 24hr
cm
rain mn
cm
humidity
%
barometer
mb
20260505040104 13 23 0.0 0.0 0.00 0.00 0.00 77 1014.2
20260505035601 13 23 0.0 0.0 0.00 0.00 0.00 77 1014.1
20260505035057 14 23 0.0 0.0 0.00 0.00 0.00 77 1014.1
20260505034554 14 23 0.0 0.0 0.00 0.00 0.00 76 1014.0
20260505034050 14 23 0.0 0.0 0.00 0.00 0.00 76 1014.2
20260505033547 15 23 0.0 0.0 0.00 0.00 0.00 75 1013.9
20260505033046 15 23 0.0 0.0 0.00 0.00 0.00 75 1013.8
20260505032544 15 23 0.0 0.0 0.00 0.00 0.00 73 1013.7
20260505032040 15 22 0.0 0.0 0.00 0.00 0.00 73 1013.8
20260505031537 15 22 0.0 0.0 0.00 0.00 0.00 73 1013.7
20260505031033 16 21 0.0 0.0 0.00 0.00 0.00 72 1013.5
20260505030530 16 21 0.0 0.0 0.00 0.00 0.00 72 1013.4
20260505030026 16 21 0.0 0.0 0.00 0.00 0.00 71 1013.4
20260505025522 16 21 0.0 0.0 0.00 0.00 0.00 71 1013.4
20260505025022 16 21 0.0 0.0 0.00 0.00 0.00 71 1013.3
20260505024518 17 21 0.0 0.0 0.00 0.00 0.00 69 1013.3
20260505024015 17 21 0.0 0.0 0.00 0.00 0.00 68 1013.1
20260505023512 17 21 0.0 0.0 0.00 0.00 0.00 67 1013.1
20260505023010 17 21 0.0 0.0 0.00 0.00 0.00 67 1013.0
20260505022507 18 21 0.0 0.0 0.00 0.00 0.00 65 1013.0
20260505022004 18 21 0.0 0.0 0.00 0.00 0.00 65 1013.1
20260505021500 18 21 0.0 0.0 0.00 0.00 0.00 65 1013.0
20260505020956 18 21 0.0 0.0 0.00 0.00 0.00 65 1012.8
20260505020452 18 21 0.0 0.0 0.00 0.00 0.00 63 1012.8
20260505015948 19 21 0.0 0.0 0.00 0.00 0.00 62 1013.0
20260505015446 20 21 0.0 0.0 0.00 0.00 0.00 62 1012.9
20260505014943 20 21 0.0 0.0 0.00 0.00 0.00 62 1012.9
20260505014440 20 21 0.0 0.0 0.00 0.00 0.00 61 1012.9
20260505013937 20 21 0.0 0.0 0.00 0.00 0.00 61 1013.0
20260505013434 20 21 0.0 1.6 0.00 0.00 0.00 60 1013.1
20260505012931 21 21 0.0 0.0 0.00 0.00 0.00 60 1013.0
20260505012430 21 21 0.0 0.0 0.00 0.00 0.00 60 1012.7
20260505011926 21 20 1.6 4.8 0.00 0.00 0.00 59 1012.9
20260505011422 21 21 0.0 0.0 0.00 0.00 0.00 58 1012.9
20260505010919 21 21 0.0 1.6 0.00 0.00 0.00 58 1012.8
20260505010414 21 21 0.0 0.0 0.00 0.00 0.00 58 1012.9
20260505005911 21 21 0.0 1.6 0.00 0.00 0.00 57 1012.4
20260505005408 22 21 0.0 0.0 0.00 0.00 0.00 57 1012.9
20260505004905 22 21 0.0 0.0 0.00 0.00 0.00 57 1012.7
20260505004401 22 21 0.0 0.0 0.00 0.00 0.00 57 1012.9
20260505003858 22 21 0.0 0.0 0.00 0.00 0.00 56 1012.8
20260505003356 22 21 0.0 0.0 0.00 0.00 0.00 56 1012.9
20260505002852 22 22 0.0 0.0 0.00 0.00 0.00 56 1012.7
20260505002349 22 21 0.0 0.0 0.00 0.00 0.00 55 1012.6
20260505001847 23 20 1.6 1.6 0.00 0.00 0.00 55 1012.8
20260505001344 23 20 0.0 0.0 0.00 0.00 0.00 56 1012.4
20260505000841 23 21 0.0 0.0 0.00 0.00 0.00 54 1012.4
20260505000339 23 21 1.6 3.2 0.00 0.00 0.00 54 1012.6
20260504235835 23 22 0.0 0.0 0.00 0.00 0.00 53 1012.7
20260504235332 24 26 0.0 0.0 0.00 0.00 0.00 52 1012.6
20260504234829 25 24 0.0 1.6 0.00 0.00 0.00 54 1012.7
20260504234327 25 29 0.0 0.0 0.00 0.00 0.00 52 1012.6
20260504233823 25 28 0.0 0.0 0.00 0.00 0.00 57 1012.4
20260504233319 25 27 0.0 0.0 0.00 0.00 0.00 55 1012.4
20260504232815 25 27 0.0 0.0 0.00 0.00 0.00 54 1012.6
20260504232313 25 25 0.0 0.0 0.00 0.00 0.00 54 1012.4
20260504231809 25 26 0.0 0.0 0.00 0.00 0.00 54 1012.3
20260504231306 25 27 0.0 0.0 0.00 0.00 0.00 54 1012.7
20260504230802 24 29 0.0 0.0 0.00 0.00 0.00 56 1012.7
20260504230300 23 28 0.0 1.6 0.00 0.00 0.00 55 1012.8
20260504225759 24 29 0.0 0.0 0.00 0.00 0.00 55 1012.8
20260504225255 23 29 0.0 0.0 0.00 0.00 0.00 55 1013.0
20260504224752 23 24 0.0 0.0 0.00 0.00 0.00 58 1013.0
20260504224249 23 27 0.0 0.0 0.00 0.00 0.00 58 1013.1
20260504223745 23 21 0.0 0.0 0.00 0.00 0.00 56 1012.9
20260504223241 23 22 0.0 1.6 0.00 0.00 0.00 56 1013.1
20260504222738 24 28 0.0 1.6 0.00 0.00 0.00 54 1012.9
20260504222235 24 30 0.0 0.0 0.00 0.00 0.00 55 1013.0
20260504221733 24 57 0.0 0.0 0.00 0.00 0.00 54 1013.1
20260504221229 25 31 0.0 0.0 0.00 0.00 0.00 53 1013.2
20260504220726 24 29 0.0 0.0 0.00 0.00 0.00 54 1013.2
20260504220223 23 27 0.0 0.0 0.00 0.00 0.00 58 1013.5
20260504215720 24 26 0.0 0.0 0.00 0.00 0.00 54 1013.3
20260504215217 23 26 0.0 0.0 0.00 0.00 0.00 55 1013.4
20260504214713 23 27 0.0 0.0 0.00 0.00 0.00 55 1013.5
20260504214210 24 24 0.0 1.6 0.00 0.00 0.00 54 1013.4
20260504213706 23 25 0.0 0.0 0.00 0.00 0.00 55 1013.2
20260504213203 23 27 0.0 1.6 0.00 0.00 0.00 58 1013.7
20260504212700 23 24 0.0 0.0 0.00 0.00 0.00 55 1013.5
20260504212156 23 24 0.0 0.0 0.00 0.00 0.00 56 1013.5
20260504211654 23 24 0.0 1.6 0.00 0.00 0.00 58 1013.7
20260504211150 23 23 0.0 0.0 0.00 0.00 0.00 57 1013.9
20260504210648 23 23 0.0 1.6 0.00 0.00 0.00 54 1013.9
20260504210144 22 70 0.0 0.0 0.00 0.00 0.00 56 1014.1
20260504205642 23 24 0.0 0.0 0.00 0.00 0.00 58 1014.1
20260504205138 22 22 0.0 0.0 0.00 0.00 0.00 58 1014.1
20260504204637 22 23 0.0 0.0 0.00 0.00 0.00 57 1014.2
20260504204136 22 23 0.0 0.0 0.00 0.00 0.00 58 1014.1
20260504203634 22 22 0.0 0.0 0.00 0.00 0.00 57 1014.3
20260504203131 22 23 0.0 0.0 0.00 0.00 0.00 59 1014.4
20260504202626 22 23 0.0 0.0 0.00 0.00 0.00 59 1014.4
20260504202123 21 23 0.0 0.0 0.00 0.00 0.00 61 1014.4
20260504201620 21 23 0.0 0.0 0.00 0.00 0.00 62 1014.5
20260504201118 21 20 0.0 0.0 0.00 0.00 0.00 61 1014.6
20260504200615 21 121 0.0 0.0 0.00 0.00 0.00 61 1014.6
20260504200111 21 121 0.0 0.0 0.00 0.00 0.00 59 1014.5
20260504195607 21 17 0.0 0.0 0.00 0.00 0.00 60 1014.7
20260504195103 21 31 0.0 0.0 0.00 0.00 0.00 59 1014.6
20260504194600 21 150 0.0 0.0 0.00 0.00 0.00 60 1014.4
20260504194055 21 63 1.6 3.2 0.00 0.00 0.00 60 1014.9
20260504193552 21 14 0.0 0.0 0.00 0.00 0.00 60 1014.6
20260504193051 20 31 0.0 0.0 0.00 0.00 0.00 63 1014.6
20260504192549 20 151 0.0 0.0 0.00 0.00 0.00 63 1014.8
20260504192047 20 152 0.0 0.0 0.00 0.00 0.00 62 1014.8
20260504191544 20 66 0.0 0.0 0.00 0.00 0.00 63 1014.9
20260504191040 20 60 0.0 0.0 0.00 0.00 0.00 62 1014.7
20260504190537 20 57 0.0 0.0 0.00 0.00 0.00 62 1015.1
20260504190033 20 49 0.0 0.0 0.00 0.00 0.00 63 1015.0
20260504185530 20 23 0.0 0.0 0.00 0.00 0.00 63 1014.8
20260504185026 20 142 0.0 0.0 0.00 0.00 0.00 62 1014.9
20260504184522 20 18 0.0 0.0 0.00 0.00 0.00 64 1014.6
20260504184018 19 60 0.0 0.0 0.00 0.00 0.00 64 1014.9
20260504183515 19 101 0.0 0.0 0.00 0.00 0.00 65 1014.9
20260504183013 18 75 0.0 0.0 0.00 0.00 0.00 64 1014.9
20260504182509 19 75 0.0 0.0 0.00 0.00 0.00 64 1014.8
20260504182007 19 72 0.0 0.0 0.00 0.00 0.00 65 1015.1
20260504181504 18 25 0.0 0.0 0.00 0.00 0.00 66 1015.0
20260504181003 19 26 0.0 1.6 0.00 0.00 0.00 64 1014.9
20260504180501 18 26 0.0 0.0 0.00 0.00 0.00 67 1014.7
20260504175959 18 25 0.0 0.0 0.00 0.00 0.00 66 1015.0
20260504175456 18 26 0.0 0.0 0.00 0.00 0.00 68 1014.8
20260504174953 18 33 0.0 0.0 0.00 0.00 0.00 66 1015.1
20260504174450 18 54 0.0 0.0 0.00 0.00 0.00 66 1014.8
20260504173948 18 51 0.0 0.0 0.00 0.00 0.00 68 1015.2
20260504173444 18 47 0.0 0.0 0.00 0.00 0.00 66 1014.7
20260504172942 17 49 0.0 0.0 0.00 0.00 0.00 68 1014.9
20260504172437 17 31 0.0 0.0 0.00 0.00 0.00 68 1015.0
20260504171934 18 46 0.0 0.0 0.00 0.00 0.00 67 1014.8
20260504171431 18 46 0.0 0.0 0.00 0.00 0.00 67 1014.8
20260504170928 17 46 0.0 0.0 0.00 0.00 0.00 68 1014.8
20260504170424 17 46 0.0 0.0 0.00 0.00 0.00 67 1014.6
20260504160343 16 38 0.0 0.0 0.00 0.00 0.00 70 1015.0
20260504150808 12 32 0.0 0.0 0.00 0.00 0.00 82 1014.6
20260504150305 12 32 0.0 0.0 0.00 0.00 0.00 82 1014.6
20260504141235 11 32 0.0 0.0 0.00 0.00 0.00 86 1014.3
20260504140731 11 32 0.0 0.0 0.00 0.00 0.00 86 1014.5
20260504140227 11 32 0.0 0.0 0.00 0.00 0.00 86 1014.5
20260504130656 11 33 0.0 0.0 0.00 0.00 0.00 84 1013.5
20260504130152 11 34 0.0 0.0 0.00 0.00 0.00 83 1013.5
20260504120116 12 34 0.0 0.0 0.00 0.00 0.00 82 1012.7
20260504110543 12 34 0.0 0.0 0.00 0.00 0.00 82 1012.0
20260504100505 12 34 0.0 0.0 0.00 0.00 0.00 84 1011.8
20260504081858 11 34 0.0 0.0 0.00 0.00 0.00 85 1011.4
20260504081355 11 34 0.0 0.0 0.00 0.00 0.00 85 1011.6
20260504080850 12 34 0.0 0.0 0.00 0.00 0.00 85 1011.6
20260504080348 12 34 0.0 0.0 0.00 0.00 0.00 85 1011.8
20260504070315 12 34 0.0 0.0 0.00 0.00 0.00 83 1011.5
20260504060236 13 34 0.0 0.0 0.00 0.00 0.00 80 1011.3
20260504050703 15 35 0.0 0.0 0.00 0.00 0.00 77 1011.3
20260504050200 15 35 0.0 0.0 0.00 0.00 0.00 76 1011.2
20260504045657 15 35 0.0 0.0 0.00 0.00 0.00 76 1010.9
20260504045152 15 35 0.0 0.0 0.00 0.00 0.00 76 1011.0
20260504044650 15 35 0.0 0.0 0.00 0.00 0.00 76 1011.0
20260504044146 16 35 0.0 0.0 0.00 0.00 0.00 76 1011.0
20260504043643 16 35 0.0 0.0 0.00 0.00 0.00 76 1010.7
20260504043141 16 35 0.0 0.0 0.00 0.00 0.00 75 1010.9
20260504042638 16 35 0.0 0.0 0.00 0.00 0.00 75 1010.9
20260504042134 16 35 0.0 0.0 0.00 0.00 0.00 74 1010.8
20260504041630 16 35 0.0 0.0 0.00 0.00 0.00 74 1010.9
20260504041127 16 35 0.0 0.0 0.00 0.00 0.00 74 1010.7
20260504040624 16 35 0.0 0.0 0.00 0.00 0.00 74 1010.6